This demonstration page uses our WeatherBlox Daily Observations layout. Learn more.

39.08367, -84.50855

Hourly Observations for August 13, 2019

Temp ( °F °C ) Dew Point ( °F °C ) Humidity (%) Winds ( mph kmh ) Pressure ( in mb ) Visibility ( mi km ) Precip ( " mm )
12:53 am 00:53 Mostly Cloudy 73 22.8 71 21.7 94 94 Calm 29.83 1010 10 16.09344 0 0
1:35 am 01:35 Cloudy with Nearby Thunderstorms 73 22.8 72 22.2 96 96 SW 5 7 29.83 1010 10 16.09344 0 0
1:53 am 01:53 Cloudy with Nearby Thunderstorms 73 22.8 72 22.2 96 96 S 7 11 29.8 1009 4 6.437376 0.03 0.762
1:56 am 01:56 Cloudy with Nearby Thunderstorms 73 22.8 72 22.2 96 96 S 10 17 29.83 1010 1.75 2.816352 0.11 2.794
2:03 am 02:03 Cloudy with Heavy Thunderstorms 73 22.8 72 22.2 96 96 S 12 19 29.83 1010 1.25 2.01168 0.19 4.826
2:07 am 02:07 Cloudy with Light Thunderstorms 73 22.8 72 22.2 96 96 SSE 8 13 29.83 1010 3 4.828032 0.19 4.826
2:27 am 02:27 Cloudy with Nearby Thunderstorms 74 23.3 72 22.2 94 94 Calm 29.8 1009 10 16.09344 0.19 4.826
2:41 am 02:41 Cloudy with Light Rain 73 22.8 72 22.2 96 96 VRB 3 6 29.8 1009 8 12.874752 0.2 5.08
2:48 am 02:48 Cloudy with Nearby Thunderstorms 73 23 72 22 94 94 Calm 29.8 1009 9 14.484096 0.2 5.08
2:53 am 02:53 Cloudy with Nearby Thunderstorms 73 22.8 72 22.2 96 96 Calm 29.77 1008 10 16.09344 0.2 5.08
3:30 am 03:30 Cloudy with Nearby Thunderstorms 74 23.3 72 22.2 94 94 VRB 3 6 29.8 1009 9 14.484096 0.01 0.254
3:40 am 03:40 Cloudy 74 23.3 72 22.2 94 94 E 9 15 29.8 1009 10 16.09344 0.01 0.254
3:53 am 03:53 Cloudy 74 23.3 72 22.2 94 94 ENE 9 15 29.77 1008 10 16.09344 0.01 0.254
4:31 am 04:31 Cloudy with Nearby Thunderstorms 74 23.3 72 22.2 94 94 S 5 7 29.77 1008 10 16.09344 0 0
4:46 am 04:46 Cloudy 74 23.3 72 22.2 94 94 SW 9 15 29.77 1008 10 16.09344 0 0
4:53 am 04:53 Mostly Cloudy with Nearby Thunderstorms 74 23.3 72 22.2 94 94 VRB 6 9 29.74 1007 10 16.09344 0 0
5:08 am 05:08 Partly Cloudy 74 23.3 72 22.2 94 94 WSW 6 9 29.77 1008 10 16.09344 0.001 0.001
5:42 am 05:42 Mostly Cloudy 74 23.3 72 22.2 94 94 Calm 29.83 1010 10 16.09344 0.001 0.001
5:53 am 05:53 Mostly Cloudy 74 23.3 72 22.2 94 94 NE 6 9 29.8 1009 10 16.09344 0.001 0.001
6:03 am 06:03 Mostly Cloudy 73 22.8 72 22.2 96 96 E 5 7 29.8 1009 10 16.09344 0 0
6:53 am 06:53 Sunny 73 22.8 71 21.7 94 94 Calm 29.8 1009 10 16.09344 0 0
7:00 am 07:00 Partly Cloudy 73 22.8 71 21.7 94 94 NNE 3 6 29.83 1010 10 16.09344 0 0
7:53 am 07:53 Partly Cloudy 73 22.8 72 22.2 96 96 S 6 9 29.8 1009 10 16.09344 0 0
8:53 am 08:53 Cloudy 74 23.3 72 22.2 94 94 S 8 13 29.8 1009 10 16.09344 0 0
9:53 am 09:53 Cloudy 76 24.4 73 22.8 91 91 SSW 12 19 29.83 1010 10 16.09344 0 0
10:53 am 10:53 Partly Cloudy 78 25.6 73 22.8 85 85 SSW 13 20 29.83 1010 10 16.09344 0 0
11:53 am 11:53 Mostly Cloudy 79 26.1 73 22.8 82 82 SSW 12 19 29.83 1010 10 16.09344 0 0
12:53 pm 12:53 Partly Cloudy 82 27.8 72 22.2 72 72 W 12 19 29.8 1009 10 16.09344 0 0
1:53 pm 13:53 Mostly Sunny 84 28.9 71 21.7 65 65 W 12 19 29.77 1008 10 16.09344 0 0
2:53 pm 14:53 Sunny 86 30 71 21.7 61 61 NNW 8 13 29.77 1008 10 16.09344 0 0
3:53 pm 15:53 Mostly Sunny 88 31.1 73 22.8 61 61 NNW 6 9 29.77 1008 10 16.09344 0 0
4:53 pm 16:53 Mostly Cloudy 86 30 73 22.8 65 65 NW 8 13 29.77 1008 10 16.09344 0 0
5:53 pm 17:53 Partly Cloudy 87 30.6 72 22.2 61 61 NW 9 15 29.77 1008 10 16.09344 0 0
6:53 pm 18:53 Sunny 86 30 72 22.2 63 63 WNW 7 11 29.77 1008 10 16.09344 0 0
7:53 pm 19:53 Partly Cloudy 85 29.4 69 20.6 59 59 NW 7 11 29.77 1008 10 16.09344 0 0
8:53 pm 20:53 Mostly Cloudy 79 26.1 70 21.1 74 74 N 22 35 29.8 1009 10 16.09344 0 0
9:53 pm 21:53 Cloudy 74 23.3 72 22.2 94 94 Calm 29.83 1010 10 16.09344 0.05 1.27
10:53 pm 22:53 Mostly Clear 72 22.2 72 22.2 100 100 S 3 6 29.83 1010 10 16.09344 0 0
11:49 pm 23:49 Clear with Mist and Fog 72 22 72 22 100 100 Calm 29.88 1012 2 3.218688 0 0
11:53 pm 23:53 Clear with Mist and Fog 72 22.2 71 21.7 97 97 Calm 29.85 1011 2.5 4.02336 0 0

Powered by AerisWeather